Simultaneous Nadir Overpasses (SNOs) Predictions

Prediction of SNOs between LANDSAT-8 and NPP Satellite Orbit:

Table of predicted SNOs for the next 14.0 days since TLE Epoch: 7/6/2018
Index Date (LANDSAT-8) Time (LANDSAT-8) Lat,Lon (LANDSAT-8) SZA (LANDSAT-8 ) Date (NPP) Time (NPP) Lat,Lon (NPP) SZA (NPP ) Distance(km) Time Diff (sec)
1 07/06/2018 22:24:30 70.18,-159.74 47.54 07/06/2018 22:23:47 70.19,-159.77 47.57 1.85 43
2 07/06/2018 23:14:00 -70.07, 7.73 132.56 07/06/2018 23:14:28 -70.07, 7.75 132.57 0.56 28
3 07/09/2018 13:51:19 -71.06, 149.83 131.31 07/09/2018 13:50:12 -71.07, 147.27 131.20 92.24 67
4 07/09/2018 14:41:01 70.15, -43.91 47.82 07/09/2018 14:40:41 70.16, -43.95 47.84 2.51 20
5 07/09/2018 15:30:31 -70.04, 123.57 132.28 07/09/2018 15:31:22 -70.03, 123.57 132.29 0.34 51
6 07/12/2018 06:08:04 -70.27, -95.50 131.72 07/12/2018 06:06:51 -70.26, -95.62 131.71 4.85 73
7 07/12/2018 06:57:32 70.11, 71.92 48.14 07/12/2018 06:57:34 70.08, 71.95 48.11 3.03 2
8 07/12/2018 07:47:03 -69.95,-120.68 132.01 07/12/2018 07:48:15 -69.95,-120.52 132.03 6.00 72
9 07/14/2018 22:24:36 -70.18, 20.25 131.41 07/14/2018 22:23:44 -70.18, 20.28 131.40 1.22 52
10 07/14/2018 23:14:03 70.07,-172.26 48.50 07/14/2018 23:14:28 70.06,-172.23 48.48 1.59 25
11 07/15/2018 00:03:48 -69.14, -5.89 132.37 07/15/2018 00:04:54 -69.12, -3.55 132.49 92.80 66
12 07/17/2018 14:41:06 -70.14, 136.07 131.01 07/17/2018 14:40:37 -70.15, 136.10 130.99 1.64 29
13 07/17/2018 15:30:33 70.02, -56.44 48.90 07/17/2018 15:31:21 70.03, -56.42 48.90 1.42 48
14 07/20/2018 06:08:05 70.30, 84.56 49.63 07/20/2018 06:06:52 70.37, 84.21 49.73 15.44 73
15 07/20/2018 06:57:37 -70.09,-108.11 130.57 07/20/2018 06:57:31 -70.12,-108.08 130.54 3.22 6
16 07/20/2018 07:47:03 70.03, 59.45 49.39 07/20/2018 07:48:15 70.01, 59.39 49.36 3.29 72




NCC Satellite Simultaneous Nadir Overpasses (SNOs) Prediction Service
